South St. Paul, MN

10:12 PM CDT on October 20, 2019 (GMT -0500)
South Saint Paul Municipal-Fleming

Weather History for KSGS - August, 2019

Change the Weather History Date:

Monday, August 19, 2019

  Actual Average (KSTP) Record (KSTP)
Temperature  
Mean Temperature 66 °F -  
Max Temperature 79 °F 78 °F 90 °F (2003)
Min Temperature 54 °F 58 °F 45 °F (2004)
Cooling Degree Days 2    
Growing Degree Days 16 (Base 50)    
Moisture  
Dew Point 56 °F    
Average Humidity 67    
Maximum Humidity 98    
Minimum Humidity 43    
Precipitation  
Precipitation 0.00 in - - ()
Sea Level Pressure  
Sea Level Pressure 29.99 in    
Wind  
Wind Speed 2 mph (South)    
Max Wind Speed 9 mph    
Max Gust Speed -    
Visibility 10 miles    
Events      
Averages and records for this station are not official NWS values.
T = Trace of Precipitation, MM = Missing Value Source: NWS Daily Summary

Daily Weather History Graph

Daily Weather History Graph

Search for Another Location

Airport or City:

Astronomy

Aug. 19, 2019 Rise Set
Actual Time 6:18 AM CDT 8:12 PM CDT
Civil Twilight 5:47 AM CDT 8:43 PM CDT
Nautical Twilight 5:08 AM CDT 9:21 PM CDT
Astronomical Twilight 4:26 AM CDT 10:03 PM CDT
Moon 10:23 PM CDT (8/19) 10:08 AM CDT (8/19)
Length of Visible Light 14h 56m
Length of Day
13h 53m
Waning Gibbous, 85% of the Moon is Illuminated
Aug 19
Waning Gibbous
Aug 23
Last Quarter
Aug 30
New
Sep 5
First Quarter
Sep 13
Full

Hourly Weather History & Observations

Time (CDT) Temp. Dew Point Humidity Pressure Visibility Wind Dir Wind Speed Gust Speed Precip Events Conditions
12:15 AM 59.9 °F 53.6 °F 80% 29.94 in 10.0 mi Calm Calm - N/A   Clear
12:16 AM 60.1 °F 53.6 °F 79% 29.94 in 10.0 mi Calm Calm - N/A   Clear
12:35 AM 60.1 °F 53.4 °F 79% 29.95 in 10.0 mi Calm Calm - N/A   Clear
12:36 AM 60.1 °F 53.2 °F 78% 29.95 in 10.0 mi Calm Calm - N/A   Clear
12:55 AM 59.4 °F 52.7 °F 79% 29.96 in 10.0 mi Calm Calm - N/A   Clear
12:56 AM 59.4 °F 52.7 °F 79% 29.96 in 10.0 mi Calm Calm - N/A   Clear
1:15 AM 59.4 °F 52.9 °F 79% 29.96 in 10.0 mi Calm Calm - N/A   Clear
1:35 AM 59.2 °F 52.7 °F 79% 29.96 in 10.0 mi Calm Calm - N/A   Clear
1:55 AM 58.8 °F 52.7 °F 80% 29.96 in 10.0 mi Calm Calm - N/A   Clear
2:15 AM 59.0 °F 52.7 °F 80% 29.96 in 10.0 mi Calm Calm - N/A   Clear
2:16 AM 59.0 °F 52.7 °F 80% 29.96 in 10.0 mi Calm Calm - N/A   Clear
2:35 AM 59.4 °F 53.1 °F 80% 29.97 in 10.0 mi Calm Calm - N/A   Clear
2:55 AM 58.3 °F 53.2 °F 83% 29.97 in 10.0 mi SSW 3.5 mph - N/A   Clear
3:15 AM 58.3 °F 53.2 °F 83% 29.97 in 10.0 mi Calm Calm - N/A   Clear
3:35 AM 58.3 °F 53.4 °F 84% 29.98 in 10.0 mi Calm Calm - N/A   Clear
3:55 AM 57.4 °F 53.4 °F 87% 29.98 in 10.0 mi Calm Calm - N/A   Clear
3:56 AM 57.4 °F 53.4 °F 87% 29.98 in 10.0 mi Calm Calm - N/A   Clear
4:15 AM 57.2 °F 54.5 °F 91% 29.98 in 10.0 mi Calm Calm - N/A   Clear
4:35 AM 55.8 °F 53.1 °F 91% 29.98 in 10.0 mi Calm Calm - N/A   Clear
4:36 AM 55.8 °F 53.1 °F 91% 29.98 in 10.0 mi Calm Calm - N/A   Clear
4:55 AM 55.6 °F 54.0 °F 94% 29.99 in 10.0 mi Calm Calm - N/A   Clear
4:56 AM 55.4 °F 53.8 °F 94% 29.99 in 10.0 mi Calm Calm - N/A   Clear
5:15 AM 55.6 °F 54.1 °F 95% 29.99 in 10.0 mi Calm Calm - N/A   Clear
5:16 AM 55.6 °F 54.1 °F 95% 29.99 in 10.0 mi Calm Calm - N/A   Clear
5:35 AM 55.2 °F 53.4 °F 94% 30.00 in 10.0 mi Calm Calm - N/A   Clear
5:36 AM 55.0 °F 53.2 °F 94% 30.00 in 10.0 mi Calm Calm - N/A   Clear
5:55 AM 54.9 °F 53.6 °F 96% 30.00 in 10.0 mi Calm Calm - N/A   Clear
6:15 AM 54.1 °F 52.9 °F 95% 30.01 in 10.0 mi Calm Calm - N/A   Clear
6:35 AM 54.7 °F 54.1 °F 98% 30.01 in 4.0 mi Calm Calm - N/A   Clear
6:55 AM 55.4 °F 54.7 °F 97% 30.01 in 7.0 mi Calm Calm - N/A   Clear
7:15 AM 56.3 °F 55.6 °F 97% 30.01 in 7.0 mi Calm Calm - N/A   Clear
7:35 AM 57.2 °F 55.6 °F 94% 30.01 in 7.0 mi Calm Calm - N/A   Clear
7:36 AM 57.4 °F 55.6 °F 94% 30.01 in 7.0 mi Calm Calm - N/A   Clear
7:55 AM 59.0 °F 56.3 °F 91% 30.01 in 7.0 mi Calm Calm - N/A   Clear
8:15 AM 60.1 °F 55.9 °F 86% 30.01 in 10.0 mi Calm Calm - N/A   Clear
8:35 AM 62.2 °F 55.4 °F 78% 30.01 in 10.0 mi Calm Calm - N/A   Clear
8:55 AM 64.8 °F 53.8 °F 68% 30.01 in 10.0 mi Calm Calm - N/A   Clear
8:56 AM 64.9 °F 53.8 °F 67% 30.01 in 10.0 mi Calm Calm - N/A   Clear
9:15 AM 66.4 °F 55.2 °F 67% 30.01 in 10.0 mi Calm Calm - N/A   Clear
9:16 AM 66.4 °F 55.6 °F 68% 30.01 in 10.0 mi Calm Calm - N/A   Clear
9:35 AM 67.8 °F 54.1 °F 62% 30.01 in 10.0 mi Calm Calm - N/A   Clear
9:55 AM 68.7 °F 55.4 °F 62% 30.01 in 10.0 mi Calm Calm - N/A   Clear
9:56 AM 68.7 °F 55.8 °F 63% 30.01 in 10.0 mi South 3.5 mph - N/A   Clear
10:15 AM 69.8 °F 51.1 °F 51% 30.02 in 10.0 mi South 6.9 mph - N/A   Clear
10:16 AM 69.8 °F 50.7 °F 51% 30.02 in 10.0 mi South 5.8 mph - N/A   Clear
10:35 AM 71.1 °F 52.2 °F 51% 30.02 in 10.0 mi SSW 5.8 mph - N/A   Clear
10:36 AM 71.1 °F 51.4 °F 50% 30.02 in 10.0 mi South 4.6 mph - N/A   Clear
10:55 AM 71.4 °F 50.9 °F 48% 30.02 in 10.0 mi SSW 6.9 mph - N/A   Clear
11:15 AM 72.1 °F 51.3 °F 48% 30.02 in 10.0 mi South 5.8 mph - N/A   Clear
11:16 AM 72.1 °F 51.3 °F 48% 30.02 in 10.0 mi South 4.6 mph - N/A   Clear
11:35 AM 73.0 °F 53.4 °F 50% 30.02 in 10.0 mi SW 5.8 mph - N/A   Clear
11:36 AM 73.0 °F 53.1 °F 49% 30.02 in 10.0 mi SW 4.6 mph - N/A   Clear
11:55 AM 73.4 °F 52.7 °F 48% 30.02 in 10.0 mi South 5.8 mph - N/A   Clear
12:15 PM 74.1 °F 52.7 °F 47% 30.02 in 10.0 mi South 5.8 mph - N/A   Clear
12:35 PM 75.2 °F 54.0 °F 47% 30.01 in 10.0 mi South 6.9 mph - N/A   Clear
12:55 PM 75.4 °F 53.8 °F 47% 30.01 in 10.0 mi SW 5.8 mph - N/A   Clear
1:15 PM 75.7 °F 54.9 °F 48% 30.01 in 10.0 mi SSW 6.9 mph - N/A   Clear
1:35 PM 76.6 °F 54.7 °F 46% 30.01 in 10.0 mi SSE 8.1 mph - N/A   Clear
1:55 PM 76.6 °F 54.9 °F 47% 30.01 in 7.0 mi South 6.9 mph - N/A   Clear
1:56 PM 76.8 °F 55.0 °F 47% 30.01 in 10.0 mi SSW 9.2 mph - N/A   Clear
2:15 PM 77.4 °F 55.2 °F 46% 30.00 in 10.0 mi SSW 6.9 mph - N/A   Clear
2:16 PM 77.4 °F 55.4 °F 47% 30.00 in 10.0 mi SSW 8.1 mph - N/A   Clear
2:35 PM 77.5 °F 53.2 °F 43% 30.00 in 10.0 mi SSW 3.5 mph - N/A   Clear
2:36 PM 77.7 °F 53.2 °F 43% 30.00 in 10.0 mi South 4.6 mph - N/A   Clear
2:55 PM 77.9 °F 56.7 °F 48% 29.99 in 10.0 mi South 8.1 mph - N/A   Clear
3:15 PM 78.1 °F 55.2 °F 45% 29.99 in 10.0 mi South 5.8 mph - N/A   Clear
3:16 PM 78.1 °F 55.8 °F 46% 29.99 in 10.0 mi South 5.8 mph - N/A   Clear
3:35 PM 78.4 °F 55.8 °F 45% 29.98 in 10.0 mi SSE 3.5 mph - N/A   Clear
3:55 PM 79.0 °F 55.8 °F 45% 29.98 in 7.0 mi South 5.8 mph - N/A   Clear
3:56 PM 79.0 °F 55.9 °F 45% 29.98 in 7.0 mi South 6.9 mph - N/A   Clear
4:15 PM 79.0 °F 56.5 °F 46% 29.97 in 10.0 mi SSE 8.1 mph - N/A   Clear
4:16 PM 79.2 °F 56.7 °F 46% 29.97 in 10.0 mi SSE 9.2 mph - N/A   Clear
4:35 PM 79.5 °F 56.8 °F 46% 29.97 in 10.0 mi SSE 9.2 mph - N/A   Clear
4:55 PM 79.7 °F 56.5 °F 45% 29.98 in 10.0 mi SSW 8.1 mph - N/A   Clear
4:56 PM 79.7 °F 56.5 °F 45% 29.98 in 10.0 mi SW 9.2 mph - N/A   Clear
5:15 PM 79.3 °F 56.1 °F 45% 29.97 in 10.0 mi South 8.1 mph - N/A   Clear
5:35 PM 79.7 °F 56.3 °F 44% 29.97 in 10.0 mi South 6.9 mph - N/A   Clear
5:55 PM 79.3 °F 55.8 °F 44% 29.97 in 10.0 mi South 6.9 mph - N/A   Clear
6:15 PM 79.3 °F 56.5 °F 45% 29.97 in 10.0 mi South 5.8 mph - N/A   Clear
6:35 PM 79.0 °F 57.2 °F 47% 29.96 in 10.0 mi SSW 9.2 mph - N/A   Clear
6:55 PM 78.4 °F 56.5 °F 47% 29.96 in 10.0 mi SSW 6.9 mph - N/A   Clear
7:15 PM 77.9 °F 57.6 °F 49% 29.96 in 10.0 mi South 4.6 mph - N/A   Clear
7:35 PM 77.2 °F 58.8 °F 53% 29.96 in 10.0 mi SSE 3.5 mph - N/A   Clear
7:55 PM 76.3 °F 59.5 °F 56% 29.97 in 10.0 mi South 3.5 mph - N/A   Clear
7:56 PM 76.1 °F 59.5 °F 56% 29.97 in 10.0 mi South 3.5 mph - N/A   Clear
8:15 PM 74.8 °F 59.9 °F 60% 29.97 in 10.0 mi Calm Calm - N/A   Clear
8:16 PM 74.8 °F 59.9 °F 60% 29.97 in 10.0 mi Calm Calm - N/A   Clear
8:35 PM 73.9 °F 59.9 °F 61% 29.97 in 10.0 mi Calm Calm - N/A   Clear
8:55 PM 73.0 °F 59.9 °F 63% 29.98 in 10.0 mi Calm Calm - N/A   Clear
8:56 PM 73.0 °F 59.9 °F 63% 29.98 in 10.0 mi Calm Calm - N/A   Clear
9:15 PM 71.8 °F 60.1 °F 67% 29.99 in 10.0 mi Calm Calm - N/A   Clear
9:35 PM 72.0 °F 60.1 °F 66% 29.99 in 10.0 mi Calm Calm - N/A   Clear
9:36 PM 72.0 °F 60.1 °F 66% 29.99 in 10.0 mi Calm Calm - N/A   Clear
9:55 PM 70.3 °F 60.4 °F 71% 29.99 in 10.0 mi Calm Calm - N/A   Clear
10:15 PM 70.0 °F 60.8 °F 73% 30.00 in 10.0 mi Calm Calm - N/A   Clear
10:16 PM 70.0 °F 60.8 °F 73% 30.00 in 10.0 mi Calm Calm - N/A   Clear
10:35 PM 69.8 °F 62.1 °F 76% 30.00 in 10.0 mi Calm Calm - N/A   Clear
10:55 PM 68.9 °F 62.2 °F 79% 30.00 in 10.0 mi Calm Calm - N/A   Clear
11:15 PM 68.0 °F 62.6 °F 83% 30.00 in 10.0 mi Calm Calm - N/A   Clear
11:16 PM 68.0 °F 62.8 °F 83% 30.00 in 10.0 mi Calm Calm - N/A   Clear
11:35 PM 68.2 °F 62.1 °F 81% 30.00 in 10.0 mi Calm Calm - N/A   Clear
11:55 PM 67.5 °F 61.9 °F 82% 30.00 in 10.0 mi Calm Calm - N/A   Clear
11:56 PM 67.3 °F 61.9 °F 83% 30.00 in 10.0 mi Calm Calm - N/A   Clear